| time (UTC) | temp F | wind direction | speed MPH | gust MPH | rain 1hr in | rain 24hr in | rain mn in | humidity % | barometer mb |
| 20260901012154 | 80 | 88 | 6.0 | 8.0 | 0.00 | 0.34 | 0.34 | 66 | 1015.5 |
| 20260901011702 | 80 | 86 | 3.0 | 5.0 | 0.00 | 0.34 | 0.34 | 68 | 1015.5 |
| 20260901011259 | 80 | 74 | 3.0 | 5.0 | 0.00 | 0.34 | 0.34 | 67 | 1015.6 |
| 20260901011153 | 80 | 73 | 3.0 | 4.0 | 0.00 | 0.34 | 0.34 | 67 | 1015.6 |
| 20260901010703 | 81 | 72 | 3.0 | 5.0 | 0.00 | 0.34 | 0.34 | 67 | 1015.7 |
| 20260901010320 | 81 | 87 | 3.0 | 5.0 | 0.00 | 0.34 | 0.34 | 67 | 1015.7 |
| 20260901010210 | 81 | 82 | 3.0 | 5.0 | 0.00 | 0.34 | 0.34 | 67 | 1015.7 |
| 20260901005700 | 81 | 80 | 3.0 | 4.0 | 0.00 | 0.34 | 0.34 | 67 | 1015.8 |
| 20260901005256 | 81 | 109 | 2.0 | 4.0 | 0.00 | 0.34 | 0.34 | 66 | 1015.9 |
| 20260901005209 | 81 | 107 | 3.0 | 4.0 | 0.00 | 0.34 | 0.34 | 66 | 1015.8 |
| 20260901004658 | 82 | 175 | 2.0 | 6.0 | 0.00 | 0.34 | 0.34 | 65 | 1015.7 |
| 20260901004256 | 82 | 22 | 2.0 | 7.0 | 0.00 | 0.34 | 0.34 | 64 | 1015.6 |
| 20260901004209 | 82 | 162 | 2.0 | 7.0 | 0.00 | 0.34 | 0.34 | 64 | 1015.6 |
| 20260901003718 | 83 | 90 | 4.0 | 10.0 | 0.00 | 0.34 | 0.34 | 63 | 1015.5 |
| 20260901003255 | 83 | 82 | 5.0 | 10.0 | 0.00 | 0.34 | 0.34 | 61 | 1015.4 |
| 20260901003228 | 83 | 95 | 5.0 | 10.0 | 0.00 | 0.34 | 0.34 | 61 | 1015.3 |
| 20260901002656 | 84 | 75 | 6.0 | 8.0 | 0.00 | 0.34 | 0.34 | 61 | 1015.4 |
| 20260901002253 | 84 | 88 | 5.0 | 8.0 | 0.00 | 0.34 | 0.34 | 61 | 1015.5 |
| 20260901002205 | 84 | 97 | 5.0 | 7.0 | 0.00 | 0.34 | 0.34 | 60 | 1015.5 |
| 20260901001659 | 84 | 130 | 3.0 | 7.0 | 0.00 | 0.34 | 0.34 | 60 | 1015.6 |
| 20260901001313 | 85 | 92 | 3.0 | 8.0 | 0.00 | 0.34 | 0.34 | 59 | 1015.6 |
| 20260901001229 | 85 | 105 | 4.0 | 8.0 | 0.00 | 0.34 | 0.34 | 59 | 1015.6 |
| 20260901000658 | 85 | 76 | 4.0 | 8.0 | 0.00 | 0.34 | 0.34 | 59 | 1015.5 |
| 20260901000315 | 85 | 121 | 5.0 | 9.0 | 0.00 | 0.34 | 0.34 | 58 | 1015.5 |
| 20260901000207 | 86 | 98 | 5.0 | 9.0 | 0.00 | 0.34 | 0.34 | 57 | 1015.6 |
| 20260831235657 | 86 | 61 | 6.0 | 9.0 | 0.00 | 0.34 | 0.34 | 57 | 1015.6 |
| 20260831235254 | 86 | 79 | 5.0 | 8.0 | 0.00 | 0.34 | 0.34 | 56 | 1015.6 |
| 20260831235208 | 86 | 76 | 6.0 | 9.0 | 0.00 | 0.34 | 0.34 | 56 | 1015.6 |
| 20260831234656 | 87 | 85 | 6.0 | 11.0 | 0.00 | 0.34 | 0.34 | 56 | 1015.5 |
| 20260831234311 | 87 | 71 | 8.0 | 11.0 | 0.00 | 0.34 | 0.34 | 54 | 1015.6 |
| 20260831234203 | 87 | 76 | 7.0 | 13.0 | 0.00 | 0.34 | 0.34 | 54 | 1015.5 |
| 20260831233711 | 88 | 58 | 5.0 | 13.0 | 0.00 | 0.34 | 0.34 | 52 | 1015.5 |
| 20260831233328 | 88 | 82 | 6.0 | 13.0 | 0.00 | 0.34 | 0.34 | 50 | 1015.4 |
| 20260831233220 | 88 | 5 | 7.0 | 12.0 | 0.00 | 0.34 | 0.34 | 49 | 1015.4 |
| 20260831232708 | 89 | 84 | 8.0 | 11.0 | 0.00 | 0.34 | 0.34 | 51 | 1015.5 |
| 20260831232306 | 89 | 86 | 5.0 | 12.0 | 0.00 | 0.34 | 0.34 | 48 | 1015.5 |
| 20260831232217 | 89 | 82 | 6.0 | 12.0 | 0.00 | 0.34 | 0.34 | 49 | 1015.4 |
| 20260831231706 | 89 | 92 | 7.0 | 11.0 | 0.00 | 0.34 | 0.34 | 51 | 1015.4 |
| 20260831231303 | 89 | 78 | 8.0 | 11.0 | 0.00 | 0.34 | 0.34 | 49 | 1015.3 |
| 20260831231200 | 89 | 88 | 8.0 | 11.0 | 0.00 | 0.34 | 0.34 | 49 | 1015.3 |
| 20260831230710 | 90 | 78 | 8.0 | 15.0 | 0.00 | 0.34 | 0.34 | 48 | 1015.4 |
| 20260831230306 | 90 | 92 | 8.0 | 15.0 | 0.00 | 0.34 | 0.34 | 49 | 1015.3 |
| 20260831230157 | 90 | 74 | 8.0 | 15.0 | 0.00 | 0.34 | 0.34 | 50 | 1015.4 |
| 20260831225727 | 90 | 78 | 9.0 | 12.0 | 0.00 | 0.34 | 0.34 | 49 | 1015.3 |
| 20260831225306 | 90 | 84 | 7.0 | 10.0 | 0.00 | 0.34 | 0.34 | 49 | 1015.4 |
| 20260831225155 | 90 | 84 | 6.0 | 12.0 | 0.00 | 0.34 | 0.34 | 49 | 1015.4 |
| 20260831224705 | 90 | 65 | 5.0 | 13.0 | 0.00 | 0.34 | 0.34 | 49 | 1015.4 |
| 20260831224303 | 90 | 92 | 9.0 | 13.0 | 0.00 | 0.34 | 0.34 | 51 | 1015.4 |
| 20260831224156 | 90 | 69 | 7.0 | 12.0 | 0.00 | 0.34 | 0.34 | 50 | 1015.4 |
| 20260831223706 | 90 | 84 | 7.0 | 12.0 | 0.00 | 0.34 | 0.34 | 49 | 1015.6 |
| 20260831223302 | 90 | 87 | 6.0 | 12.0 | 0.00 | 0.34 | 0.34 | 49 | 1015.6 |
| 20260831223154 | 90 | 78 | 7.0 | 12.0 | 0.00 | 0.34 | 0.34 | 51 | 1015.6 |
| 20260831222708 | 90 | 59 | 7.0 | 16.0 | 0.00 | 0.34 | 0.34 | 50 | 1015.7 |
| 20260831222305 | 90 | 194 | 9.0 | 16.0 | 0.00 | 0.34 | 0.34 | 49 | 1015.7 |
| 20260831222218 | 90 | 116 | 9.0 | 16.0 | 0.00 | 0.34 | 0.34 | 49 | 1015.8 |
| 20260831221727 | 91 | 63 | 9.0 | 13.0 | 0.00 | 0.34 | 0.34 | 49 | 1015.8 |
| 20260831221319 | 91 | 88 | 6.0 | 16.0 | 0.00 | 0.34 | 0.34 | 48 | 1015.8 |
| 20260831221154 | 91 | 242 | 7.0 | 16.0 | 0.00 | 0.34 | 0.34 | 49 | 1015.8 |
| 20260831220704 | 91 | 62 | 7.0 | 12.0 | 0.00 | 0.34 | 0.34 | 48 | 1015.8 |
| 20260831220301 | 91 | 65 | 4.0 | 8.0 | 0.00 | 0.34 | 0.34 | 48 | 1015.9 |
| 20260831220153 | 91 | 51 | 3.0 | 6.0 | 0.00 | 0.34 | 0.34 | 46 | 1015.9 |
| 20260831215705 | 92 | 57 | 3.0 | 5.0 | 0.00 | 0.34 | 0.34 | 44 | 1016.0 |
| 20260831215300 | 92 | 77 | 2.0 | 6.0 | 0.00 | 0.34 | 0.34 | 44 | 1016.1 |
| 20260831215153 | 92 | 142 | 3.0 | 8.0 | 0.00 | 0.34 | 0.34 | 47 | 1016.1 |
| 20260831214725 | 92 | 68 | 1.0 | 8.0 | 0.00 | 0.34 | 0.34 | 42 | 1016.1 |
| 20260831214320 | 92 | 151 | 3.0 | 6.0 | 0.00 | 0.34 | 0.34 | 41 | 1016.2 |
| 20260831214152 | 92 | 34 | 4.0 | 8.0 | 0.00 | 0.34 | 0.34 | 45 | 1016.2 |
| 20260831213701 | 92 | 34 | 3.0 | 8.0 | 0.00 | 0.34 | 0.34 | 47 | 1016.2 |
| 20260831213256 | 92 | 88 | 4.0 | 6.0 | 0.00 | 0.34 | 0.34 | 47 | 1016.1 |
| 20260831213227 | 92 | 45 | 4.0 | 6.0 | 0.00 | 0.34 | 0.34 | 43 | 1016.2 |
| 20260831212656 | 92 | 56 | 3.0 | 9.0 | 0.00 | 0.34 | 0.34 | 43 | 1016.2 |
| 20260831212308 | 92 | 72 | 6.0 | 9.0 | 0.00 | 0.34 | 0.34 | 42 | 1016.2 |
| 20260831212205 | 92 | 61 | 6.0 | 9.0 | 0.00 | 0.34 | 0.34 | 45 | 1016.3 |
| 20260831211655 | 92 | 220 | 1.0 | 9.0 | 0.00 | 0.34 | 0.34 | 41 | 1016.3 |
| 20260831211253 | 91 | 43 | 5.0 | 9.0 | 0.00 | 0.34 | 0.34 | 44 | 1016.4 |
| 20260831211206 | 92 | 44 | 4.0 | 9.0 | 0.00 | 0.34 | 0.34 | 43 | 1016.4 |
| 20260831210657 | 91 | 28 | 4.0 | 6.0 | 0.00 | 0.34 | 0.34 | 45 | 1016.5 |
| 20260831210312 | 91 | 14 | 3.0 | 6.0 | 0.00 | 0.34 | 0.34 | 46 | 1016.5 |
| 20260831210204 | 91 | 329 | 3.0 | 6.0 | 0.00 | 0.34 | 0.34 | 46 | 1016.5 |
| 20260831205713 | 91 | 64 | 4.0 | 6.0 | 0.00 | 0.34 | 0.34 | 47 | 1016.6 |
| 20260831205309 | 91 | 46 | 3.0 | 4.0 | 0.00 | 0.34 | 0.34 | 45 | 1016.6 |
| 20260831205202 | 91 | 72 | 2.0 | 4.0 | 0.00 | 0.34 | 0.34 | 45 | 1016.6 |
| 20260831204653 | 90 | 142 | 2.0 | 5.0 | 0.00 | 0.34 | 0.34 | 44 | 1016.7 |
| 20260831204327 | 91 | 45 | 2.0 | 5.0 | 0.00 | 0.34 | 0.34 | 46 | 1016.8 |
| 20260831204159 | 91 | 86 | 2.0 | 6.0 | 0.00 | 0.34 | 0.34 | 45 | 1016.8 |
| 20260831203709 | 91 | 87 | 3.0 | 6.0 | 0.00 | 0.34 | 0.34 | 49 | 1016.8 |
| 20260831203304 | 90 | 38 | 3.0 | 6.0 | 0.00 | 0.34 | 0.34 | 50 | 1016.8 |
| 20260831203157 | 90 | 61 | 3.0 | 7.0 | 0.00 | 0.34 | 0.34 | 48 | 1016.9 |
| 20260831202709 | 90 | 26 | 4.0 | 7.0 | 0.00 | 0.34 | 0.34 | 50 | 1017.0 |
| 20260831202305 | 90 | 51 | 3.0 | 7.0 | 0.00 | 0.34 | 0.34 | 52 | 1017.1 |
| 20260831202158 | 90 | 26 | 3.0 | 7.0 | 0.00 | 0.34 | 0.34 | 49 | 1017.1 |
| 20260831201706 | 90 | 56 | 2.0 | 8.0 | 0.00 | 0.34 | 0.34 | 51 | 1017.1 |
| 20260831201302 | 90 | 60 | 5.0 | 10.0 | 0.00 | 0.34 | 0.34 | 51 | 1017.2 |
| 20260831201154 | 90 | 62 | 3.0 | 10.0 | 0.00 | 0.34 | 0.34 | 53 | 1017.1 |
| 20260831200724 | 90 | 42 | 4.0 | 10.0 | 0.00 | 0.34 | 0.34 | 47 | 1017.2 |
| 20260831200258 | 90 | 54 | 6.0 | 9.0 | 0.00 | 0.34 | 0.34 | 49 | 1017.2 |
| 20260831200210 | 90 | 63 | 4.0 | 9.0 | 0.00 | 0.34 | 0.34 | 51 | 1017.3 |
| 20260831195659 | 89 | 63 | 3.0 | 10.0 | 0.00 | 0.34 | 0.34 | 52 | 1017.3 |
| 20260831195254 | 90 | 70 | 4.0 | 10.0 | 0.00 | 0.34 | 0.34 | 50 | 1017.4 |
| 20260831195206 | 90 | 51 | 5.0 | 10.0 | 0.00 | 0.34 | 0.34 | 50 | 1017.4 |
| 20260831194655 | 90 | 34 | 4.0 | 9.0 | 0.00 | 0.34 | 0.34 | 48 | 1017.3 |
| 20260831194309 | 89 | 50 | 4.0 | 7.0 | 0.00 | 0.34 | 0.34 | 49 | 1017.3 |
| 20260831194201 | 89 | 38 | 2.0 | 6.0 | 0.00 | 0.34 | 0.34 | 50 | 1017.3 |
| 20260831193710 | 89 | 54 | 4.0 | 6.0 | 0.00 | 0.34 | 0.34 | 49 | 1017.4 |
| 20260831193327 | 89 | 52 | 3.0 | 6.0 | 0.00 | 0.34 | 0.34 | 50 | 1017.4 |
| 20260831193159 | 89 | 57 | 1.0 | 6.0 | 0.00 | 0.34 | 0.34 | 50 | 1017.4 |
| 20260831192727 | 89 | 12 | 3.0 | 6.0 | 0.00 | 0.34 | 0.34 | 50 | 1017.4 |
| 20260831192305 | 89 | 59 | 3.0 | 10.0 | 0.00 | 0.34 | 0.34 | 50 | 1017.4 |
| 20260831192216 | 89 | 94 | 4.0 | 10.0 | 0.00 | 0.34 | 0.34 | 50 | 1017.4 |
| 20260831191708 | 89 | 54 | 6.0 | 10.0 | 0.00 | 0.34 | 0.34 | 53 | 1017.4 |
| 20260831191259 | 90 | 65 | 2.0 | 7.0 | 0.00 | 0.34 | 0.34 | 53 | 1017.5 |
| 20260831191155 | 90 | 12 | 4.0 | 7.0 | 0.00 | 0.34 | 0.34 | 57 | 1017.6 |
| 20260831190706 | 89 | 116 | 2.0 | 7.0 | 0.00 | 0.34 | 0.34 | 54 | 1017.6 |
| 20260831190303 | 89 | 53 | 5.0 | 7.0 | 0.00 | 0.34 | 0.34 | 52 | 1017.6 |
| 20260831190155 | 89 | 50 | 3.0 | 5.0 | 0.00 | 0.34 | 0.34 | 53 | 1017.6 |
| 20260831185725 | 89 | 290 | 3.0 | 5.0 | 0.00 | 0.34 | 0.34 | 55 | 1017.7 |
| 20260831185259 | 89 | 229 | 2.0 | 8.0 | 0.00 | 0.34 | 0.34 | 53 | 1017.7 |
| 20260831185153 | 89 | 288 | 2.0 | 8.0 | 0.00 | 0.34 | 0.34 | 55 | 1017.7 |
| 20260831184703 | 88 | 304 | 5.0 | 8.0 | 0.00 | 0.34 | 0.34 | 58 | 1017.7 |
| 20260831184300 | 88 | 250 | 3.0 | 8.0 | 0.00 | 0.34 | 0.34 | 52 | 1017.8 |
| 20260831184153 | 88 | 286 | 3.0 | 8.0 | 0.00 | 0.34 | 0.34 | 51 | 1017.8 |
| 20260831183703 | 88 | 308 | 4.0 | 8.0 | 0.00 | 0.34 | 0.34 | 54 | 1017.8 |
| 20260831183259 | 88 | 309 | 4.0 | 8.0 | 0.00 | 0.34 | 0.34 | 58 | 1017.7 |
| 20260831183232 | 88 | 329 | 3.0 | 8.0 | 0.00 | 0.34 | 0.34 | 56 | 1017.7 |
| 20260831182705 | 88 | 263 | 4.0 | 9.0 | 0.00 | 0.34 | 0.34 | 55 | 1017.8 |
| 20260831182258 | 87 | 262 | 6.0 | 10.0 | 0.00 | 0.34 | 0.34 | 64 | 1017.8 |
| 20260831182215 | 87 | 306 | 6.0 | 10.0 | 0.00 | 0.34 | 0.34 | 57 | 1017.8 |
| 20260831181723 | 87 | 307 | 6.0 | 10.0 | 0.00 | 0.34 | 0.34 | 60 | 1017.8 |
| 20260831181258 | 87 | 319 | 5.0 | 8.0 | 0.00 | 0.34 | 0.34 | 58 | 1017.8 |
| 20260831181210 | 87 | 321 | 5.0 | 8.0 | 0.00 | 0.34 | 0.34 | 60 | 1017.8 |
| 20260831180700 | 87 | 347 | 4.0 | 10.0 | 0.00 | 0.34 | 0.34 | 57 | 1017.9 |
| 20260831180310 | 87 | 289 | 4.0 | 10.0 | 0.00 | 0.34 | 0.34 | 58 | 1017.9 |
| 20260831180202 | 87 | 309 | 4.0 | 10.0 | 0.00 | 0.34 | 0.34 | 57 | 1017.9 |
| 20260831175712 | 86 | 315 | 6.0 | 9.0 | 0.00 | 0.34 | 0.34 | 60 | 1017.9 |
| 20260831175309 | 86 | 343 | 5.0 | 9.0 | 0.00 | 0.34 | 0.34 | 60 | 1018.0 |
| 20260831175202 | 86 | 349 | 5.0 | 9.0 | 0.00 | 0.34 | 0.34 | 60 | 1018.0 |
| 20260831174712 | 86 | 306 | 5.0 | 10.0 | 0.00 | 0.34 | 0.34 | 63 | 1018.0 |
| 20260831174307 | 86 | 314 | 5.0 | 10.0 | 0.00 | 0.34 | 0.34 | 62 | 1018.0 |
| 20260831174159 | 86 | 338 | 4.0 | 8.0 | 0.00 | 0.34 | 0.34 | 62 | 1018.1 |
| 20260831173653 | 86 | 294 | 4.0 | 8.0 | 0.00 | 0.34 | 0.34 | 62 | 1018.1 |
| 20260831173306 | 86 | 311 | 6.0 | 9.0 | 0.00 | 0.34 | 0.34 | 63 | 1018.1 |
| 20260831173203 | 86 | 304 | 6.0 | 9.0 | 0.00 | 0.34 | 0.34 | 61 | 1018.1 |
| 20260831172713 | 85 | 309 | 4.0 | 9.0 | 0.00 | 0.34 | 0.34 | 63 | 1018.1 |
| 20260831172308 | 85 | 298 | 5.0 | 8.0 | 0.00 | 0.34 | 0.34 | 65 | 1018.1 |
| 20260831172201 | 85 | 284 | 6.0 | 8.0 | 0.00 | 0.34 | 0.34 | 65 | 1018.1 |
| 20260831171711 | 84 | 360 | 3.0 | 9.0 | 0.00 | 0.34 | 0.34 | 61 | 1018.1 |
| 20260831171308 | 84 | 325 | 3.0 | 9.0 | 0.00 | 0.34 | 0.34 | 60 | 1018.2 |
| 20260831171202 | 84 | 360 | 3.0 | 9.0 | 0.00 | 0.34 | 0.34 | 60 | 1018.2 |
| 20260831170711 | 84 | 337 | 3.0 | 5.0 | 0.00 | 0.34 | 0.34 | 59 | 1018.2 |
| 20260831170307 | 84 | 279 | 2.0 | 5.0 | 0.00 | 0.34 | 0.34 | 62 | 1018.2 |
| 20260831170158 | 84 | 306 | 1.0 | 5.0 | 0.00 | 0.34 | 0.34 | 66 | 1018.2 |
| 20260831165726 | 84 | 327 | 2.0 | 7.0 | 0.00 | 0.34 | 0.34 | 62 | 1018.3 |
| 20260831165323 | 84 | 228 | 4.0 | 7.0 | 0.00 | 0.34 | 0.34 | 61 | 1018.3 |
| 20260831165155 | 84 | 296 | 4.0 | 7.0 | 0.00 | 0.34 | 0.34 | 62 | 1018.3 |
| 20260831164706 | 84 | 284 | 3.0 | 8.0 | 0.00 | 0.34 | 0.34 | 59 | 1018.4 |
| 20260831164302 | 84 | 294 | 2.0 | 8.0 | 0.00 | 0.34 | 0.34 | 64 | 1018.4 |
| 20260831164159 | 83 | 339 | 4.0 | 8.0 | 0.00 | 0.34 | 0.34 | 64 | 1018.5 |
| 20260831163710 | 83 | 303 | 3.0 | 8.0 | 0.00 | 0.34 | 0.34 | 59 | 1018.4 |
| 20260831163306 | 83 | 291 | 2.0 | 9.0 | 0.00 | 0.34 | 0.34 | 64 | 1018.4 |
| 20260831163219 | 83 | 216 | 4.0 | 9.0 | 0.00 | 0.34 | 0.34 | 64 | 1018.3 |
| 20260831162708 | 83 | 317 | 4.0 | 8.0 | 0.00 | 0.34 | 0.34 | 64 | 1018.4 |
| 20260831162306 | 82 | 295 | 5.0 | 8.0 | 0.00 | 0.34 | 0.34 | 65 | 1018.3 |
| 20260831162156 | 82 | 310 | 5.0 | 8.0 | 0.00 | 0.34 | 0.34 | 67 | 1018.4 |
| 20260831161707 | 82 | 317 | 4.0 | 8.0 | 0.00 | 0.34 | 0.34 | 66 | 1018.3 |
| 20260831161303 | 82 | 316 | 5.0 | 8.0 | 0.00 | 0.34 | 0.34 | 62 | 1018.2 |
| 20260831161156 | 82 | 317 | 4.0 | 7.0 | 0.00 | 0.34 | 0.34 | 62 | 1018.2 |
| 20260831160705 | 82 | 336 | 3.0 | 6.0 | 0.00 | 0.34 | 0.34 | 67 | 1018.1 |
| 20260831160301 | 81 | 275 | 3.0 | 7.0 | 0.00 | 0.34 | 0.34 | 62 | 1018.1 |
| 20260831160214 | 81 | 236 | 3.0 | 7.0 | 0.00 | 0.34 | 0.34 | 65 | 1018.1 |
| 20260831155701 | 81 | 217 | 4.0 | 8.0 | 0.00 | 0.34 | 0.34 | 65 | 1018.0 |
| 20260831155258 | 81 | 328 | 5.0 | 8.0 | 0.00 | 0.34 | 0.34 | 65 | 1018.0 |
| 20260831155215 | 81 | 309 | 5.0 | 7.0 | 0.00 | 0.34 | 0.34 | 68 | 1018.0 |
| 20260831154704 | 80 | 263 | 3.0 | 7.0 | 0.00 | 0.34 | 0.34 | 69 | 1018.0 |
| 20260831154259 | 80 | 281 | 4.0 | 7.0 | 0.00 | 0.34 | 0.34 | 68 | 1017.9 |
| 20260831154213 | 80 | 278 | 4.0 | 7.0 | 0.00 | 0.34 | 0.34 | 68 | 1018.0 |
| 20260831153701 | 79 | 254 | 3.0 | 5.0 | 0.00 | 0.34 | 0.34 | 68 | 1017.9 |
| 20260831153258 | 79 | 279 | 3.0 | 5.0 | 0.00 | 0.34 | 0.34 | 64 | 1017.9 |
| 20260831153211 | 79 | 266 | 3.0 | 8.0 | 0.00 | 0.34 | 0.34 | 64 | 1018.0 |
| 20260831152719 | 79 | 321 | 3.0 | 8.0 | 0.00 | 0.34 | 0.34 | 70 | 1018.0 |
| 20260831152255 | 78 | 288 | 5.0 | 8.0 | 0.00 | 0.34 | 0.34 | 68 | 1017.9 |
| 20260831152227 | 78 | 263 | 4.0 | 7.0 | 0.00 | 0.34 | 0.34 | 68 | 1017.9 |
| 20260831151657 | 77 | 287 | 3.0 | 5.0 | 0.00 | 0.34 | 0.34 | 75 | 1017.9 |
| 20260831151331 | 77 | 250 | 3.0 | 8.0 | 0.00 | 0.34 | 0.34 | 79 | 1017.9 |
| 20260831151223 | 76 | 211 | 3.0 | 8.0 | 0.00 | 0.34 | 0.34 | 77 | 1017.9 |
| 20260831150713 | 76 | 288 | 5.0 | 8.0 | 0.00 | 0.34 | 0.34 | 80 | 1017.9 |
| 20260831150329 | 75 | 257 | 5.0 | 7.0 | 0.00 | 0.34 | 0.34 | 83 | 1018.0 |
| 20260831150201 | 75 | 248 | 5.0 | 7.0 | 0.00 | 0.34 | 0.34 | 83 | 1018.0 |
| 20260831145712 | 74 | 277 | 4.0 | 8.0 | 0.00 | 0.34 | 0.34 | 85 | 1018.1 |
| 20260831145309 | 74 | 251 | 5.0 | 8.0 | 0.00 | 0.34 | 0.34 | 85 | 1018.1 |
| 20260831145201 | 74 | 252 | 4.0 | 8.0 | 0.00 | 0.34 | 0.34 | 87 | 1018.0 |
| 20260831144655 | 73 | 283 | 4.0 | 7.0 | 0.00 | 0.34 | 0.34 | 88 | 1018.1 |
| 20260831144308 | 72 | 269 | 5.0 | 7.0 | 0.00 | 0.34 | 0.34 | 89 | 1018.1 |
| 20260831144206 | 72 | 288 | 4.0 | 7.0 | 0.00 | 0.34 | 0.34 | 89 | 1018.1 |
| 20260831143655 | 71 | 308 | 3.0 | 7.0 | 0.00 | 0.34 | 0.34 | 91 | 1018.1 |
| 20260831143331 | 70 | 296 | 4.0 | 7.0 | 0.00 | 0.34 | 0.34 | 93 | 1018.1 |
| 20260831143200 | 70 | 286 | 4.0 | 7.0 | 0.00 | 0.34 | 0.34 | 92 | 1018.2 |
| 20260831142708 | 69 | 279 | 4.0 | 7.0 | 0.00 | 0.34 | 0.34 | 94 | 1018.2 |
| 20260831142325 | 69 | 275 | 4.0 | 7.0 | 0.00 | 0.34 | 0.34 | 95 | 1018.1 |
| 20260831142217 | 69 | 257 | 4.0 | 7.0 | 0.00 | 0.34 | 0.34 | 95 | 1018.1 |
| 20260831141706 | 68 | 281 | 3.0 | 7.0 | 0.00 | 0.34 | 0.34 | 95 | 1018.2 |
| 20260831141303 | 67 | 263 | 4.0 | 8.0 | 0.00 | 0.34 | 0.34 | 94 | 1018.2 |
| 20260831141156 | 68 | 260 | 4.0 | 8.0 | 0.00 | 0.34 | 0.34 | 94 | 1018.3 |
| 20260831140705 | 68 | 264 | 4.0 | 9.0 | 0.00 | 0.34 | 0.34 | 94 | 1018.3 |
| 20260831140302 | 68 | 275 | 4.0 | 9.0 | 0.00 | 0.34 | 0.34 | 94 | 1018.2 |
| 20260831140155 | 68 | 266 | 4.0 | 9.0 | 0.00 | 0.34 | 0.34 | 94 | 1018.3 |
| 20260831135707 | 68 | 275 | 5.0 | 8.0 | 0.00 | 0.34 | 0.34 | 94 | 1018.2 |
| 20260831135306 | 68 | 291 | 4.0 | 8.0 | 0.00 | 0.34 | 0.34 | 94 | 1018.2 |
| 20260831135159 | 68 | 311 | 5.0 | 8.0 | 0.00 | 0.34 | 0.34 | 94 | 1018.1 |
| 20260831134709 | 68 | 314 | 6.0 | 8.0 | 0.00 | 0.34 | 0.34 | 95 | 1018.0 |
| 20260831134306 | 68 | 295 | 5.0 | 8.0 | 0.00 | 0.34 | 0.34 | 95 | 1018.0 |
| 20260831134159 | 68 | 283 | 5.0 | 8.0 | 0.00 | 0.34 | 0.34 | 96 | 1018.0 |
| 20260831133710 | 68 | 321 | 4.0 | 7.0 | 0.00 | 0.34 | 0.34 | 97 | 1018.0 |
| 20260831133308 | 67 | 304 | 4.0 | 6.0 | 0.00 | 0.34 | 0.34 | 97 | 1017.9 |
| 20260831133201 | 67 | 298 | 3.0 | 6.0 | 0.00 | 0.34 | 0.34 | 98 | 1017.9 |
| 20260831132711 | 67 | 297 | 4.0 | 6.0 | 0.00 | 0.34 | 0.34 | 98 | 1017.8 |
| 20260831132308 | 66 | 345 | 3.0 | 4.0 | 0.00 | 0.34 | 0.34 | 98 | 1017.7 |
| 20260831132200 | 66 | 9 | 2.0 | 3.0 | 0.00 | 0.34 | 0.34 | 98 | 1017.7 |
| 20260831131729 | 65 | 294 | 0.0 | 2.0 | 0.00 | 0.34 | 0.34 | 98 | 1017.6 |
| 20260831131302 | 65 | 294 | 0.0 | 2.0 | 0.00 | 0.34 | 0.34 | 97 | 1017.4 |
| 20260831131155 | 65 | 294 | 0.0 | 2.0 | 0.00 | 0.34 | 0.34 | 97 | 1017.4 |
| 20260831130705 | 65 | 294 | 2.0 | 4.0 | 0.00 | 0.34 | 0.34 | 97 | 1017.4 |
| 20260831130301 | 65 | 265 | 2.0 | 5.0 | 0.00 | 0.34 | 0.34 | 97 | 1017.5 |
| 20260831130159 | 65 | 264 | 3.0 | 5.0 | 0.00 | 0.34 | 0.34 | 97 | 1017.4 |
| 20260831125709 | 65 | 250 | 4.0 | 6.0 | 0.00 | 0.34 | 0.34 | 98 | 1017.6 |
| 20260831125306 | 65 | 250 | 4.0 | 5.0 | 0.00 | 0.34 | 0.34 | 98 | 1017.7 |
| 20260831125156 | 65 | 248 | 4.0 | 6.0 | 0.00 | 0.34 | 0.34 | 98 | 1017.7 |
| 20260831124705 | 65 | 250 | 3.0 | 5.0 | 0.00 | 0.34 | 0.34 | 98 | 1017.4 |
| 20260831124302 | 64 | 248 | 3.0 | 7.0 | 0.00 | 0.34 | 0.34 | 98 | 1017.4 |
| 20260831124155 | 64 | 263 | 3.0 | 7.0 | 0.00 | 0.34 | 0.34 | 98 | 1017.4 |
| 20260831123705 | 64 | 263 | 4.0 | 7.0 | 0.00 | 0.34 | 0.34 | 98 | 1017.6 |
| 20260831123302 | 64 | 272 | 4.0 | 6.0 | 0.00 | 0.34 | 0.34 | 98 | 1017.4 |
| 20260831123216 | 64 | 273 | 4.0 | 6.0 | 0.00 | 0.34 | 0.34 | 97 | 1017.4 |
| 20260831122705 | 64 | 244 | 3.0 | 4.0 | 0.00 | 0.34 | 0.34 | 97 | 1017.4 |
| 20260831122301 | 64 | 244 | 3.0 | 3.0 | 0.00 | 0.34 | 0.34 | 97 | 1017.4 |
| 20260831122153 | 64 | 300 | 2.0 | 3.0 | 0.00 | 0.34 | 0.34 | 97 | 1017.3 |
| 20260831121702 | 64 | 213 | 1.0 | 5.0 | 0.00 | 0.34 | 0.34 | 97 | 1017.3 |
| 20260831121318 | 64 | 213 | 2.0 | 7.0 | 0.00 | 0.34 | 0.34 | 97 | 1017.4 |
| 20260831121230 | 64 | 213 | 3.0 | 7.0 | 0.00 | 0.34 | 0.34 | 97 | 1017.4 |
| 20260831120703 | 64 | 220 | 3.0 | 7.0 | 0.00 | 0.34 | 0.34 | 97 | 1017.5 |
| 20260831120254 | 64 | 297 | 5.0 | 12.0 | 0.00 | 0.34 | 0.34 | 97 | 1017.7 |
| 20260831120210 | 64 | 308 | 4.0 | 12.0 | 0.00 | 0.34 | 0.34 | 97 | 1017.6 |
| 20260831115701 | 64 | 310 | 8.0 | 12.0 | 0.00 | 0.34 | 0.34 | 97 | 1017.6 |
| 20260831115257 | 64 | 302 | 7.0 | 10.0 | 0.00 | 0.34 | 0.34 | 97 | 1017.6 |
| 20260831115211 | 64 | 312 | 6.0 | 10.0 | 0.00 | 0.34 | 0.34 | 97 | 1017.6 |
| 20260831114701 | 64 | 319 | 3.0 | 10.0 | 0.00 | 0.34 | 0.34 | 97 | 1017.4 |
| 20260831114257 | 64 | 313 | 6.0 | 9.0 | 0.00 | 0.34 | 0.34 | 96 | 1017.3 |
| 20260831114230 | 64 | 336 | 5.0 | 9.0 | 0.00 | 0.34 | 0.34 | 96 | 1017.3 |
| 20260831113659 | 64 | 173 | 2.0 | 11.0 | 0.00 | 0.34 | 0.34 | 97 | 1017.0 |
| 20260831113256 | 64 | 347 | 6.0 | 11.0 | 0.00 | 0.34 | 0.34 | 96 | 1017.1 |
| 20260831113208 | 64 | 360 | 7.0 | 11.0 | 0.00 | 0.34 | 0.34 | 96 | 1017.1 |
| 20260831112658 | 64 | 295 | 1.0 | 4.0 | 0.00 | 0.34 | 0.34 | 96 | 1017.0 |
| 20260831112255 | 64 | 146 | 1.0 | 4.0 | 0.00 | 0.34 | 0.34 | 96 | 1016.7 |
| 20260831112208 | 64 | 146 | 1.0 | 4.0 | 0.00 | 0.34 | 0.34 | 96 | 1016.7 |
| 20260831111702 | 64 | 169 | 3.0 | 5.0 | 0.00 | 0.34 | 0.34 | 96 | 1016.6 |
| 20260831111255 | 64 | 186 | 2.0 | 5.0 | 0.00 | 0.34 | 0.34 | 95 | 1016.5 |
| 20260831111212 | 64 | 180 | 2.0 | 5.0 | 0.00 | 0.34 | 0.34 | 95 | 1016.6 |
| 20260831110703 | 65 | 164 | 2.0 | 5.0 | 0.00 | 0.34 | 0.34 | 95 | 1016.4 |
| 20260831110320 | 65 | 140 | 4.0 | 7.0 | 0.00 | 0.34 | 0.34 | 95 | 1016.2 |
| 20260831110212 | 65 | 144 | 3.0 | 7.0 | 0.00 | 0.34 | 0.34 | 95 | 1016.2 |
| 20260831105701 | 65 | 192 | 4.0 | 10.0 | 0.00 | 0.34 | 0.34 | 95 | 1016.3 |
| 20260831105258 | 65 | 140 | 5.0 | 11.0 | 0.00 | 0.34 | 0.34 | 95 | 1016.1 |
| 20260831105211 | 65 | 150 | 6.0 | 11.0 | 0.00 | 0.34 | 0.34 | 96 | 1016.1 |
| 20260831104701 | 65 | 157 | 8.0 | 11.0 | 0.00 | 0.34 | 0.34 | 96 | 1015.9 |
| 20260831104257 | 66 | 142 | 7.0 | 12.0 | 0.00 | 0.34 | 0.34 | 96 | 1016.0 |
| 20260831104230 | 66 | 159 | 7.0 | 12.0 | 0.00 | 0.34 | 0.34 | 96 | 1016.0 |
| 20260831103658 | 66 | 142 | 8.0 | 12.0 | 0.00 | 0.34 | 0.34 | 97 | 1015.8 |
| 20260831103255 | 66 | 144 | 7.0 | 9.0 | 0.00 | 0.34 | 0.34 | 97 | 1015.8 |
| 20260831103228 | 66 | 152 | 6.0 | 9.0 | 0.00 | 0.34 | 0.34 | 97 | 1015.8 |
| 20260831102717 | 66 | 140 | 6.0 | 9.0 | 0.00 | 0.34 | 0.34 | 97 | 1015.9 |
| 20260831102312 | 66 | 160 | 5.0 | 9.0 | 0.00 | 0.34 | 0.34 | 97 | 1015.9 |
| 20260831102204 | 66 | 150 | 6.0 | 9.0 | 0.00 | 0.34 | 0.34 | 97 | 1015.9 |
| 20260831101734 | 66 | 153 | 8.0 | 9.0 | 0.00 | 0.34 | 0.34 | 97 | 1015.8 |
| 20260831101309 | 66 | 142 | 5.0 | 8.0 | 0.00 | 0.34 | 0.34 | 97 | 1015.9 |
| 20260831101206 | 66 | 143 | 5.0 | 8.0 | 0.00 | 0.34 | 0.34 | 97 | 1015.9 |
| 20260831100654 | 66 | 136 | 4.0 | 7.0 | 0.00 | 0.34 | 0.34 | 96 | 1016.0 |
| 20260831100325 | 66 | 140 | 2.0 | 4.0 | 0.00 | 0.34 | 0.34 | 96 | 1015.9 |
| 20260831100200 | 66 | 151 | 1.0 | 4.0 | 0.00 | 0.34 | 0.34 | 96 | 1015.9 |
| 20260831095710 | 66 | 215 | 2.0 | 5.0 | 0.00 | 0.34 | 0.34 | 96 | 1015.8 |
| 20260831095307 | 66 | 215 | 4.0 | 7.0 | 0.00 | 0.34 | 0.34 | 96 | 1015.9 |
| 20260831095200 | 66 | 232 | 3.0 | 7.0 | 0.00 | 0.34 | 0.34 | 96 | 1015.8 |
| 20260831094711 | 66 | 265 | 3.0 | 7.0 | 0.00 | 0.34 | 0.34 | 96 | 1015.8 |
| 20260831094308 | 66 | 153 | 3.0 | 4.0 | 0.00 | 0.34 | 0.34 | 96 | 1015.8 |
| 20260831094221 | 66 | 172 | 2.0 | 4.0 | 0.00 | 0.34 | 0.34 | 96 | 1015.8 |
| 20260831093730 | 66 | 127 | 1.0 | 2.0 | 0.00 | 0.34 | 0.34 | 95 | 1015.8 |
| 20260831093306 | 66 | 127 | 1.0 | 4.0 | 0.00 | 0.34 | 0.34 | 95 | 1015.8 |
| 20260831093159 | 66 | 127 | 1.0 | 5.0 | 0.00 | 0.34 | 0.34 | 95 | 1015.7 |
| 20260831092709 | 66 | 90 | 1.0 | 5.0 | 0.00 | 0.34 | 0.34 | 95 | 1015.6 |
| 20260831092306 | 66 | 82 | 4.0 | 5.0 | 0.00 | 0.34 | 0.34 | 95 | 1015.5 |
| 20260831092156 | 66 | 72 | 5.0 | 6.0 | 0.00 | 0.34 | 0.34 | 95 | 1015.5 |
| 20260831091707 | 66 | 81 | 2.0 | 3.0 | 0.00 | 0.34 | 0.34 | 95 | 1015.8 |
| 20260831091303 | 66 | 81 | 1.0 | 3.0 | 0.00 | 0.34 | 0.34 | 94 | 1016.1 |
| 20260831091200 | 66 | 81 | 0.0 | 3.0 | 0.00 | 0.34 | 0.34 | 94 | 1016.1 |
| 20260831090707 | 66 | 81 | 0.0 | 4.0 | 0.00 | 0.34 | 0.34 | 94 | 1016.3 |
| 20260831090303 | 66 | 81 | 1.0 | 5.0 | 0.01 | 0.34 | 0.34 | 94 | 1016.4 |
| 20260831090155 | 66 | 81 | 1.0 | 5.0 | 0.01 | 0.34 | 0.34 | 94 | 1016.4 |
| 20260831085706 | 66 | 75 | 4.0 | 4.0 | 0.01 | 0.34 | 0.34 | 94 | 1016.4 |
| 20260831085306 | 66 | 82 | 3.0 | 6.0 | 0.01 | 0.34 | 0.34 | 94 | 1016.5 |
| 20260831085234 | 66 | 82 | 2.0 | 7.0 | 0.01 | 0.34 | 0.34 | 94 | 1016.5 |
| 20260831084703 | 66 | 67 | 3.0 | 7.0 | 0.01 | 0.34 | 0.34 | 94 | 1016.5 |
| 20260831084319 | 66 | 61 | 6.0 | 8.0 | 0.01 | 0.34 | 0.34 | 95 | 1016.6 |
| 20260831084210 | 66 | 65 | 6.0 | 8.0 | 0.01 | 0.34 | 0.34 | 95 | 1016.5 |
| 20260831083700 | 65 | 35 | 5.0 | 6.0 | 0.01 | 0.34 | 0.34 | 95 | 1016.6 |
| 20260831083257 | 65 | 56 | 2.0 | 4.0 | 0.02 | 0.34 | 0.34 | 95 | 1016.7 |
| 20260831083210 | 65 | 317 | 2.0 | 6.0 | 0.02 | 0.34 | 0.34 | 95 | 1016.8 |
| 20260831082658 | 65 | 10 | 2.0 | 9.0 | 0.02 | 0.34 | 0.34 | 95 | 1017.0 |
| 20260831082313 | 65 | 344 | 5.0 | 9.0 | 0.03 | 0.34 | 0.34 | 95 | 1016.9 |
| 20260831082208 | 65 | 328 | 5.0 | 9.0 | 0.03 | 0.34 | 0.34 | 95 | 1016.9 |
| 20260831081718 | 65 | 349 | 5.0 | 8.0 | 0.05 | 0.34 | 0.34 | 95 | 1017.1 |
| 20260831081309 | 65 | 355 | 5.0 | 8.0 | 0.06 | 0.34 | 0.34 | 95 | 1017.6 |
| 20260831081205 | 65 | 355 | 5.0 | 6.0 | 0.06 | 0.34 | 0.34 | 95 | 1017.6 |
| 20260831080713 | 65 | 299 | 1.0 | 4.0 | 0.07 | 0.34 | 0.34 | 94 | 1018.0 |
| 20260831080309 | 65 | 326 | 1.0 | 9.0 | 0.09 | 0.33 | 0.33 | 94 | 1018.0 |
| 20260831080202 | 65 | 326 | 2.0 | 10.0 | 0.09 | 0.33 | 0.33 | 94 | 1018.0 |
| 20260831075712 | 65 | 56 | 3.0 | 11.0 | 0.15 | 0.33 | 0.33 | 94 | 1017.6 |
| 20260831075309 | 65 | 62 | 8.0 | 11.0 | 0.17 | 0.33 | 0.33 | 94 | 1017.4 |
| 20260831075222 | 65 | 86 | 8.0 | 11.0 | 0.21 | 0.33 | 0.33 | 93 | 1017.4 |
| 20260831074710 | 65 | 103 | 9.0 | 11.0 | 0.27 | 0.33 | 0.33 | 94 | 1017.4 |
| 20260831074307 | 65 | 78 | 7.0 | 10.0 | 0.32 | 0.33 | 0.33 | 94 | 1017.6 |
| 20260831074159 | 65 | 85 | 5.0 | 10.0 | 0.32 | 0.33 | 0.33 | 94 | 1017.6 |
| 20260831073709 | 65 | 55 | 7.0 | 11.0 | 0.32 | 0.33 | 0.33 | 94 | 1017.6 |
| 20260831073306 | 66 | 62 | 6.0 | 11.0 | 0.31 | 0.32 | 0.32 | 94 | 1017.7 |
| 20260831073201 | 66 | 30 | 6.0 | 11.0 | 0.31 | 0.32 | 0.32 | 94 | 1017.8 |
| 20260831072711 | 66 | 48 | 4.0 | 12.0 | 0.31 | 0.32 | 0.32 | 93 | 1017.6 |
| 20260831072321 | 66 | 18 | 9.0 | 12.0 | 0.30 | 0.31 | 0.31 | 93 | 1017.4 |
| 20260831072155 | 66 | 34 | 8.0 | 12.0 | 0.30 | 0.31 | 0.31 | 93 | 1017.4 |
| 20260831071706 | 66 | 34 | 5.0 | 11.0 | 0.28 | 0.29 | 0.29 | 93 | 1018.0 |
| 20260831071305 | 66 | 12 | 7.0 | 11.0 | 0.27 | 0.28 | 0.28 | 93 | 1017.9 |
| 20260831071157 | 66 | 18 | 7.0 | 11.0 | 0.27 | 0.28 | 0.28 | 93 | 1017.9 |
| 20260831070727 | 66 | 23 | 6.0 | 10.0 | 0.26 | 0.27 | 0.27 | 93 | 1017.9 |
| 20260831070303 | 66 | 5 | 6.0 | 10.0 | 0.24 | 0.24 | 0.24 | 91 | 1018.0 |
| 20260831070155 | 66 | 15 | 6.0 | 11.0 | 0.24 | 0.24 | 0.24 | 91 | 1018.1 |
| 20260831065705 | 66 | 282 | 6.0 | 15.0 | 0.18 | 0.18 | 0.18 | 90 | 1019.1 |
| 20260831065301 | 67 | 327 | 7.0 | 15.0 | 0.14 | 0.14 | 0.14 | 89 | 1018.6 |
| 20260831065154 | 67 | 355 | 9.0 | 15.0 | 0.10 | 0.10 | 0.10 | 89 | 1018.4 |
| 20260831064706 | 67 | 327 | 11.0 | 17.0 | 0.05 | 0.05 | 0.05 | 87 | 1017.6 |
| 20260831064259 | 67 | 16 | 12.0 | 17.0 | 0.01 | 0.01 | 0.01 | 86 | 1017.3 |
| 20260831064212 | 67 | 45 | 10.0 | 17.0 | 0.01 | 0.01 | 0.01 | 86 | 1017.3 |
| 20260831063705 | 67 | 355 | 9.0 | 18.0 | 0.01 | 0.01 | 0.01 | 85 | 1017.0 |
| 20260831063257 | 67 | 38 | 12.0 | 19.0 | 0.01 | 0.01 | 0.01 | 85 | 1016.9 |
| 20260831063235 | 67 | 360 | 14.0 | 19.0 | 0.01 | 0.01 | 0.01 | 85 | 1016.8 |
| 20260831062702 | 68 | 27 | 15.0 | 27.0 | 0.01 | 0.01 | 0.01 | 85 | 1016.8 |
| 20260831062258 | 67 | 12 | 13.0 | 28.0 | 0.01 | 0.01 | 0.01 | 86 | 1016.8 |
| 20260831062211 | 67 | 35 | 16.0 | 28.0 | 0.01 | 0.01 | 0.01 | 86 | 1016.8 |
| 20260831061659 | 66 | 26 | 21.0 | 28.0 | 0.01 | 0.01 | 0.01 | 87 | 1016.7 |
| 20260831061312 | 66 | 346 | 17.0 | 38.0 | 0.01 | 0.01 | 0.01 | 86 | 1017.0 |
| 20260831061205 | 66 | 22 | 19.0 | 38.0 | 0.01 | 0.01 | 0.01 | 86 | 1016.9 |
| 20260831060654 | 67 | 9 | 25.0 | 38.0 | 0.01 | 0.01 | 0.01 | 85 | 1017.1 |
| 20260831060331 | 68 | 5 | 23.0 | 48.0 | 0.00 | 0.00 | 0.00 | 86 | 1016.8 |
| 20260831060203 | 68 | 355 | 25.0 | 48.0 | 0.00 | 0.00 | 0.00 | 85 | 1016.9 |
| 20260831055713 | 70 | 329 | 30.0 | 48.0 | 0.00 | 0.00 | 0.00 | 78 | 1016.7 |
| 20260831055328 | 71 | 340 | 31.0 | 45.0 | 0.00 | 0.00 | 0.00 | 76 | 1016.7 |
| 20260831055159 | 72 | 331 | 31.0 | 45.0 | 0.00 | 0.00 | 0.00 | 76 | 1016.7 |
| 20260831054709 | 73 | 284 | 15.0 | 29.0 | 0.00 | 0.00 | 0.00 | 72 | 1017.6 |
| 20260831054305 | 73 | 264 | 13.0 | 20.0 | 0.00 | 0.00 | 0.00 | 67 | 1017.6 |
| 20260831054157 | 73 | 274 | 12.0 | 18.0 | 0.00 | 0.00 | 0.00 | 67 | 1017.6 |
| 20260831053711 | 73 | 226 | 7.0 | 13.0 | 0.00 | 0.00 | 0.00 | 65 | 1017.3 |
| 20260831053325 | 73 | 309 | 4.0 | 8.0 | 0.00 | 0.00 | 0.00 | 65 | 1017.1 |
| 20260831053201 | 73 | 302 | 4.0 | 8.0 | 0.00 | 0.00 | 0.00 | 66 | 1017.0 |
| 20260831052710 | 73 | 335 | 3.0 | 6.0 | 0.00 | 0.00 | 0.00 | 68 | 1016.8 |
| 20260831052307 | 74 | 355 | 2.0 | 4.0 | 0.00 | 0.00 | 0.00 | 67 | 1016.6 |
| 20260831052200 | 74 | 29 | 2.0 | 4.0 | 0.00 | 0.00 | 0.00 | 67 | 1016.6 |
| 20260831051711 | 74 | 46 | 3.0 | 7.0 | 0.00 | 0.00 | 0.00 | 67 | 1016.7 |
| 20260831051308 | 74 | 25 | 3.0 | 7.0 | 0.00 | 0.00 | 0.00 | 67 | 1016.6 |
| 20260831051201 | 74 | 5 | 4.0 | 9.0 | 0.00 | 0.00 | 0.00 | 66 | 1016.6 |
| 20260831050711 | 74 | 30 | 5.0 | 10.0 | 0.00 | 0.00 | 0.00 | 67 | 1016.2 |
| 20260831050308 | 74 | 336 | 6.0 | 10.0 | 0.00 | 0.00 | 0.00 | 68 | 1016.3 |
| 20260831050221 | 74 | 327 | 5.0 | 10.0 | 0.00 | 0.00 | 0.00 | 68 | 1016.3 |
| 20260831045709 | 74 | 360 | 5.0 | 10.0 | 0.00 | 0.00 | 0.00 | 67 | 1016.4 |
| 20260831045306 | 74 | 5 | 6.0 | 10.0 | 0.00 | 0.00 | 0.00 | 68 | 1016.4 |
| 20260831045158 | 74 | 347 | 6.0 | 10.0 | 0.00 | 0.00 | 0.00 | 68 | 1016.4 |
| 20260831044713 | 74 | 329 | 5.0 | 8.0 | 0.00 | 0.00 | 0.00 | 68 | 1016.5 |
| 20260831044305 | 74 | 344 | 5.0 | 9.0 | 0.00 | 0.00 | 0.00 | 68 | 1016.4 |
| 20260831044201 | 74 | 331 | 4.0 | 9.0 | 0.00 | 0.00 | 0.00 | 67 | 1016.4 |
| 20260831043710 | 74 | 337 | 5.0 | 9.0 | 0.00 | 0.00 | 0.00 | 67 | 1016.5 |
| 20260831043308 | 74 | 338 | 5.0 | 9.0 | 0.00 | 0.00 | 0.00 | 67 | 1016.5 |
| 20260831043201 | 74 | 329 | 5.0 | 9.0 | 0.00 | 0.00 | 0.00 | 67 | 1016.4 |
| 20260831042731 | 74 | 360 | 4.0 | 9.0 | 0.00 | 0.00 | 0.00 | 66 | 1016.2 |
| 20260831042307 | 74 | 14 | 6.0 | 9.0 | 0.00 | 0.00 | 0.00 | 66 | 1016.1 |
| 20260831042158 | 74 | 333 | 6.0 | 12.0 | 0.00 | 0.00 | 0.00 | 66 | 1016.0 |
| 20260831041709 | 74 | 5 | 6.0 | 14.0 | 0.00 | 0.00 | 0.00 | 66 | 1015.5 |
| 20260831041306 | 74 | 360 | 7.0 | 14.0 | 0.00 | 0.00 | 0.00 | 66 | 1015.4 |
| 20260831041219 | 74 | 32 | 7.0 | 14.0 | 0.00 | 0.00 | 0.00 | 66 | 1015.4 |
| 20260831040707 | 74 | 355 | 7.0 | 14.0 | 0.00 | 0.00 | 0.00 | 66 | 1015.3 |
| 20260831040303 | 74 | 335 | 7.0 | 15.0 | 0.00 | 0.00 | 0.00 | 66 | 1015.4 |
| 20260831040155 | 74 | 15 | 7.0 | 15.0 | 0.00 | 0.00 | 0.00 | 66 | 1015.4 |
| 20260831035725 | 74 | 329 | 10.0 | 17.0 | 0.00 | 0.00 | 0.00 | 65 | 1015.6 |
| 20260831035301 | 74 | 61 | 11.0 | 17.0 | 0.00 | 0.00 | 0.00 | 66 | 1015.5 |
| 20260831035234 | 74 | 27 | 10.0 | 17.0 | 0.00 | 0.00 | 0.00 | 66 | 1015.5 |
| 20260831034702 | 74 | 351 | 10.0 | 15.0 | 0.00 | 0.00 | 0.00 | 67 | 1015.3 |
| 20260831034258 | 74 | 11 | 9.0 | 14.0 | 0.00 | 0.00 | 0.00 | 67 | 1015.3 |
| 20260831034213 | 74 | 355 | 9.0 | 14.0 | 0.00 | 0.00 | 0.00 | 67 | 1015.3 |
| 20260831033703 | 74 | 20 | 11.0 | 15.0 | 0.00 | 0.00 | 0.00 | 67 | 1015.3 |
| 20260831033258 | 74 | 360 | 11.0 | 15.0 | 0.00 | 0.00 | 0.00 | 67 | 1015.4 |
| 20260831033211 | 74 | 346 | 11.0 | 15.0 | 0.00 | 0.00 | 0.00 | 67 | 1015.4 |
| 20260831032721 | 74 | 341 | 11.0 | 15.0 | 0.00 | 0.00 | 0.00 | 66 | 1015.5 |
| 20260831032314 | 75 | 360 | 11.0 | 15.0 | 0.00 | 0.00 | 0.00 | 66 | 1015.3 |
| 20260831032207 | 75 | 11 | 9.0 | 15.0 | 0.00 | 0.00 | 0.00 | 66 | 1015.3 |
| 20260831031736 | 75 | 344 | 8.0 | 17.0 | 0.00 | 0.00 | 0.00 | 65 | 1015.0 |
| 20260831031311 | 75 | 5 | 11.0 | 18.0 | 0.00 | 0.00 | 0.00 | 64 | 1014.9 |
| 20260831031204 | 76 | 5 | 11.0 | 18.0 | 0.00 | 0.00 | 0.00 | 63 | 1014.8 |
| 20260831030714 | 76 | 333 | 12.0 | 18.0 | 0.00 | 0.00 | 0.00 | 62 | 1015.0 |
| 20260831030311 | 76 | 5 | 13.0 | 18.0 | 0.00 | 0.00 | 0.00 | 61 | 1015.2 |
| 20260831030204 | 77 | 350 | 13.0 | 18.0 | 0.00 | 0.00 | 0.00 | 60 | 1015.1 |
| 20260831025714 | 77 | 338 | 11.0 | 20.0 | 0.00 | 0.00 | 0.00 | 59 | 1015.2 |
| 20260831025311 | 78 | 350 | 14.0 | 23.0 | 0.00 | 0.00 | 0.00 | 59 | 1015.2 |
| 20260831025204 | 78 | 341 | 14.0 | 23.0 | 0.00 | 0.00 | 0.00 | 59 | 1015.1 |
| 20260831024658 | 78 | 350 | 15.0 | 28.0 | 0.00 | 0.00 | 0.00 | 57 | 1015.0 |
| 20260831024332 | 79 | 334 | 16.0 | 28.0 | 0.00 | 0.00 | 0.00 | 56 | 1014.9 |
| 20260831024227 | 79 | 314 | 17.0 | 28.0 | 0.00 | 0.00 | 0.00 | 55 | 1014.9 |
| 20260831023656 | 79 | 321 | 16.0 | 25.0 | 0.00 | 0.00 | 0.00 | 57 | 1014.8 |
| 20260831023313 | 79 | 321 | 18.0 | 25.0 | 0.00 | 0.00 | 0.00 | 58 | 1014.8 |
| 20260831023206 | 79 | 308 | 16.0 | 23.0 | 0.00 | 0.00 | 0.00 | 58 | 1014.8 |
| 20260831022656 | 79 | 151 | 1.0 | 4.0 | 0.00 | 0.00 | 0.00 | 65 | 1014.6 |
| 20260831022334 | 80 | 147 | 3.0 | 4.0 | 0.00 | 0.00 | 0.00 | 63 | 1014.4 |
| 20260831022205 | 80 | 140 | 3.0 | 5.0 | 0.00 | 0.00 | 0.00 | 64 | 1014.4 |
| 20260831021655 | 80 | 111 | 2.0 | 6.0 | 0.00 | 0.00 | 0.00 | 62 | 1014.3 |
| 20260831021311 | 80 | 84 | 4.0 | 6.0 | 0.00 | 0.00 | 0.00 | 63 | 1014.0 |
| 20260831021204 | 80 | 86 | 4.0 | 6.0 | 0.00 | 0.00 | 0.00 | 62 | 1014.0 |
| 20260831020714 | 81 | 78 | 4.0 | 5.0 | 0.00 | 0.00 | 0.00 | 62 | 1013.9 |
| 20260831020308 | 81 | 70 | 3.0 | 5.0 | 0.00 | 0.00 | 0.00 | 63 | 1014.0 |
| 20260831020201 | 81 | 73 | 3.0 | 5.0 | 0.00 | 0.00 | 0.00 | 62 | 1014.1 |
| 20260831015711 | 81 | 59 | 3.0 | 5.0 | 0.00 | 0.00 | 0.00 | 62 | 1014.0 |
| 20260831015308 | 82 | 37 | 3.0 | 5.0 | 0.00 | 0.00 | 0.00 | 62 | 1014.0 |
| 20260831015205 | 82 | 32 | 2.0 | 5.0 | 0.00 | 0.00 | 0.00 | 63 | 1014.0 |
| 20260831014715 | 82 | 63 | 4.0 | 7.0 | 0.00 | 0.00 | 0.00 | 59 | 1013.9 |
| 20260831014312 | 82 | 340 | 3.0 | 8.0 | 0.00 | 0.00 | 0.00 | 59 | 1014.0 |
| 20260831014204 | 82 | 146 | 4.0 | 8.0 | 0.00 | 0.00 | 0.00 | 59 | 1013.9 |
| 20260831013714 | 82 | 319 | 1.0 | 2.0 | 0.00 | 0.00 | 0.00 | 62 | 1013.9 |
| 20260831013311 | 83 | 284 | 1.0 | 4.0 | 0.00 | 0.00 | 0.00 | 63 | 1014.0 |
| 20260831013223 | 83 | 186 | 1.0 | 4.0 | 0.00 | 0.00 | 0.00 | 62 | 1014.0 |
| 20260831012711 | 83 | 83 | 0.0 | 4.0 | 0.00 | 0.00 | 0.00 | 61 | 1014.2 |
| 20260831012308 | 83 | 283 | 1.0 | 4.0 | 0.00 | 0.00 | 0.00 | 60 | 1014.4 |